TimeEDT,TemperatureF,Dew PointF,Humidity,Sea Level PressureIn,VisibilityMPH,Wind Direction,Wind SpeedMPH,Gust SpeedMPH,PrecipitationIn,Events,Conditions,WindDirDegrees,DateUTC
12:15 AM,76.1,73.4,91,29.93,10.0,South,6.9,-,N/A,,Clear,190,2013-09-01 04:15:00
12:35 AM,76.1,73.4,91,29.93,10.0,SSW,5.8,-,N/A,,Clear,200,2013-09-01 04:35:00
12:55 AM,75.9,73.4,92,29.92,10.0,SSW,5.8,-,N/A,,Clear,200,2013-09-01 04:55:00
1:15 AM,75.6,73.2,92,29.92,10.0,SSW,5.8,-,N/A,,Clear,210,2013-09-01 05:15:00
1:35 AM,75.2,73.0,93,29.92,10.0,SSW,4.6,-,N/A,,Clear,210,2013-09-01 05:35:00
1:55 AM,74.5,72.9,95,29.92,7.0,SSW,4.6,-,N/A,,Clear,210,2013-09-01 05:55:00
2:15 AM,75.0,73.4,95,29.91,10.0,SSW,6.9,-,N/A,,Clear,210,2013-09-01 06:15:00
2:35 AM,75.2,73.6,95,29.91,7.0,SSW,5.8,-,N/A,,Clear,210,2013-09-01 06:35:00
2:55 AM,75.2,73.4,94,29.91,7.0,SSW,5.8,-,N/A,,Clear,200,2013-09-01 06:55:00
3:15 AM,75.4,73.8,95,29.91,7.0,SSW,5.8,-,N/A,,Clear,210,2013-09-01 07:15:00
3:35 AM,75.2,73.8,95,29.90,7.0,SSW,5.8,-,N/A,,Clear,200,2013-09-01 07:35:00
3:55 AM,75.0,73.6,95,29.89,7.0,SSW,4.6,-,N/A,,Clear,210,2013-09-01 07:55:00
4:15 AM,74.5,73.0,95,29.89,7.0,SW,3.5,-,N/A,,Clear,220,2013-09-01 08:15:00
4:35 AM,74.5,73.2,96,29.89,7.0,SSW,3.5,-,N/A,,Clear,210,2013-09-01 08:35:00
4:55 AM,74.3,73.0,96,29.90,5.0,SSW,4.6,-,N/A,,Clear,210,2013-09-01 08:55:00
5:15 AM,74.3,73.0,96,29.90,7.0,SSW,4.6,-,N/A,,Clear,200,2013-09-01 09:15:00
5:35 AM,74.1,72.7,95,29.90,5.0,SSW,4.6,-,N/A,,Clear,210,2013-09-01 09:35:00
5:55 AM,74.1,73.0,96,29.90,5.0,SW,3.5,-,N/A,,Scattered Clouds,220,2013-09-01 09:55:00
6:15 AM,74.1,72.9,96,29.90,5.0,SSW,4.6,-,N/A,,Scattered Clouds,210,2013-09-01 10:15:00
6:35 AM,73.8,72.7,96,29.91,4.0,SSW,3.5,-,N/A,,Scattered Clouds,200,2013-09-01 10:35:00
6:55 AM,73.9,73.0,97,29.91,3.0,South,3.5,-,N/A,,Overcast,190,2013-09-01 10:55:00
6:56 AM,73.4,73.4,100,29.92,3.0,South,3.5,-,N/A,,Overcast,190,2013-09-01 10:56:00
7:56 AM,75.2,75.2,100,29.92,4.0,SW,5.8,-,N/A,,Mostly Cloudy,230,2013-09-01 11:56:00
8:56 AM,78.8,75.2,89,29.93,5.0,SW,6.9,-,N/A,,Clear,230,2013-09-01 12:56:00
9:56 AM,80.6,73.4,79,29.94,7.0,WSW,5.8,-,N/A,,Clear,240,2013-09-01 13:56:00
10:56 AM,86.0,73.4,66,29.94,10.0,SW,9.2,-,N/A,,Scattered Clouds,220,2013-09-01 14:56:00
11:56 AM,87.8,73.4,62,29.92,7.0,SSW,10.4,-,N/A,,Scattered Clouds,210,2013-09-01 15:56:00
12:56 PM,91.4,73.4,55,29.90,7.0,SW,10.4,18.4,N/A,,Scattered Clouds,220,2013-09-01 16:56:00
1:56 PM,89.6,71.6,55,29.88,7.0,SW,8.1,-,N/A,,Scattered Clouds,220,2013-09-01 17:56:00
2:56 PM,84.2,77.0,79,29.87,7.0,Calm,Calm,-,N/A,,Scattered Clouds,0,2013-09-01 18:56:00
3:56 PM,89.6,71.6,55,29.85,10.0,SSW,9.2,-,N/A,,Clear,210,2013-09-01 19:56:00
4:56 PM,89.6,75.2,62,29.83,10.0,South,10.4,-,N/A,,Clear,190,2013-09-01 20:56:00
5:56 PM,89.6,73.4,59,29.82,10.0,South,8.1,-,N/A,,Scattered Clouds,190,2013-09-01 21:56:00
6:56 PM,87.8,73.4,62,29.84,7.0,Calm,Calm,-,N/A,,Scattered Clouds,0,2013-09-01 22:56:00
7:56 PM,77.0,71.6,83,29.86,7.0,ENE,8.1,-,N/A,,Mostly Cloudy,60,2013-09-01 23:56:00
8:56 PM,77.0,73.4,89,29.87,7.0,East,4.6,-,N/A,,Scattered Clouds,100,2013-09-02 00:56:00
9:15 PM,77.5,73.4,87,29.88,10.0,ESE,6.9,-,N/A,,Scattered Clouds,110,2013-09-02 01:15:00
9:35 PM,77.9,73.8,87,29.88,10.0,SSE,4.6,-,N/A,,Scattered Clouds,150,2013-09-02 01:35:00
9:55 PM,78.3,74.3,88,29.89,10.0,Calm,Calm,-,N/A,,Scattered Clouds,0,2013-09-02 01:55:00
10:15 PM,76.6,72.5,87,29.90,10.0,NNE,10.4,16.1,N/A,,Mostly Cloudy,30,2013-09-02 02:15:00
10:35 PM,75.7,71.2,86,29.90,10.0,NE,9.2,-,N/A,,Overcast,50,2013-09-02 02:35:00
10:55 PM,75.7,71.2,86,29.90,10.0,ENE,3.5,-,N/A,,Mostly Cloudy,70,2013-09-02 02:55:00
11:15 PM,75.2,71.1,87,29.93,10.0,NNW,9.2,-,N/A,,Mostly Cloudy,330,2013-09-02 03:15:00
11:35 PM,73.9,71.4,92,29.92,2.5,Calm,Calm,-,0.19,Rain,Heavy Rain,0,2013-09-02 03:35:00
11:55 PM,73.4,71.6,94,29.92,7.0,SSW,5.8,-,0.44,Rain,Rain,210,2013-09-02 03:55:00